Universal City, TX

11:27 PM CST on February 10, 2016 (GMT -0600)
Randolph Air Force Base

Weather History for KRND - February, 2014

Change the Weather History Date:

Wednesday, February 26, 2014

  Actual Average Record
Temperature  
Mean Temperature 42 °F -  
Max Temperature 53 °F 64 °F 86 °F (2009)
Min Temperature 32 °F 45 °F 30 °F (2003)
Degree Days  
Heating Degree Days 22    
Moisture  
Dew Point 39 °F    
Average Humidity 84    
Maximum Humidity 100    
Minimum Humidity 74    
Precipitation  
Precipitation 0.02 in - - ()
Sea Level Pressure  
Sea Level Pressure 30.11 in    
Wind  
Wind Speed 14 mph (North)    
Max Wind Speed 26 mph    
Max Gust Speed 36 mph    
Visibility 10 miles    
Events Rain    
Averages and records for this station are not official NWS values.
T = Trace of Precipitation, MM = Missing Value Source: NWS Daily Summary

Daily Weather History Graph

Daily Weather History Graph

Search for Another Location

Airport or City:

Trip Planner

Search our weather history database for the weather conditions in past years. The results will help you decide how hot, cold, wet, or windy it might be!

Date:

Astronomy

Feb. 26, 2014 Rise Set
Actual Time 7:01 AM CST 6:30 PM CST
Civil Twilight 6:37 AM CST 6:54 PM CST
Nautical Twilight 6:10 AM CST 7:22 PM CST
Astronomical Twilight 5:42 AM CST 7:49 PM CST
Moon 4:39 AM CST (2/26) 3:55 PM CST (2/26)
Length of Visible Light 12h 16m
Length of Day
11h 28m
Waning Crescent, 10% of the Moon is Illuminated
Feb 26
Waning Crescent
Mar 1
New
Mar 8
First Quarter
Mar 16
Full
Mar 23
Last Quarter

Hourly Weather History & Observations

Time (CST) Temp. Windchill Dew Point Humidity Pressure Visibility Wind Dir Wind Speed Gust Speed Precip Events Conditions
12:30 AM 53.6 °F - 50.0 °F 88% 30.00 in 10.0 mi NNE 12.7 mph 17.3 mph N/A   Overcast
12:31 AM 53.6 °F - 50.0 °F 88% 30.00 in 10.0 mi North 12.7 mph 17.3 mph N/A Rain Light Rain
12:58 AM 52.7 °F - 49.8 °F 90% 30.00 in 10.0 mi NNE 12.7 mph - 0.00 in Rain Light Rain
1:11 AM 51.8 °F - 50.0 °F 94% 30.01 in 10.0 mi NNE 11.5 mph - N/A   Light Drizzle
1:12 AM 51.8 °F - 50.0 °F 94% 30.01 in 10.0 mi NNE 11.5 mph - N/A   Overcast
1:17 AM 51.8 °F - 50.0 °F 94% 30.00 in 10.0 mi NNE 12.7 mph - N/A   Overcast
1:18 AM 51.8 °F - 50.0 °F 94% 30.00 in 10.0 mi NNE 12.7 mph - N/A   Light Drizzle
1:23 AM 51.8 °F - 50.0 °F 94% 30.00 in 9.0 mi NNE 11.5 mph - N/A   Light Drizzle
1:24 AM 51.8 °F - 50.0 °F 94% 30.00 in 9.0 mi NNE 11.5 mph - N/A   Light Drizzle
1:29 AM 51.8 °F - 50.0 °F 94% 30.01 in 10.0 mi North 12.7 mph - N/A   Light Drizzle
1:44 AM 51.8 °F - 48.2 °F 88% 30.01 in 10.0 mi NNE 15.0 mph 23.0 mph N/A Rain Light Rain
1:58 AM 50.9 °F - 48.2 °F 90% 30.00 in 10.0 mi NNE 12.7 mph 19.6 mph 0.00 in Rain Light Rain
2:18 AM 50.0 °F - 48.2 °F 94% 30.02 in 10.0 mi North 13.8 mph 20.7 mph N/A   Overcast
2:20 AM 50.0 °F - 48.2 °F 94% 30.02 in 10.0 mi NNE 15.0 mph 21.9 mph N/A   Light Drizzle
2:37 AM 50.0 °F - 46.4 °F 87% 30.02 in 10.0 mi North 16.1 mph 23.0 mph N/A   Overcast
2:44 AM 50.0 °F - 46.4 °F 87% 30.02 in 10.0 mi NNE 16.1 mph 20.7 mph N/A   Light Drizzle
2:58 AM 50.0 °F - 47.1 °F 90% 30.02 in 10.0 mi North 15.0 mph 20.7 mph 0.00 in Rain Light Rain
3:03 AM 50.0 °F - 46.4 °F 87% 30.02 in 10.0 mi North 16.1 mph - N/A Rain Light Rain
3:17 AM 50.0 °F - 46.4 °F 87% 30.02 in 10.0 mi NNE 15.0 mph - N/A   Overcast
3:22 AM 50.0 °F - 46.4 °F 87% 30.02 in 10.0 mi NNE 18.4 mph 25.3 mph N/A   Overcast
3:32 AM 48.2 °F - 44.6 °F 87% 30.03 in 10.0 mi NNE 16.1 mph 25.3 mph N/A   Overcast
3:47 AM 48.2 °F - 44.6 °F 87% 30.04 in 10.0 mi NNE 16.1 mph 24.2 mph N/A   Overcast
3:52 AM 48.2 °F - 44.6 °F 87% 30.04 in 10.0 mi NNE 17.3 mph 25.3 mph N/A   Overcast
3:58 AM 48.2 °F - 44.4 °F 87% 30.03 in 9.0 mi NNE 15.0 mph 25.3 mph 0.00 in   Overcast
4:18 AM 48.2 °F - 42.8 °F 82% 30.05 in 10.0 mi NNE 23.0 mph 35.7 mph N/A   Overcast
4:23 AM 46.4 °F 39.0 °F 42.8 °F 87% 30.05 in 10.0 mi NNE 19.6 mph 33.4 mph N/A   Overcast
4:33 AM 46.4 °F 39.5 °F 41.0 °F 81% 30.05 in 10.0 mi North 17.3 mph 27.6 mph N/A   Overcast
4:58 AM 46.2 °F 38.7 °F 40.8 °F 81% 30.06 in 10.0 mi NNE 19.6 mph 31.1 mph N/A   Overcast
5:58 AM 43.7 °F 35.7 °F 37.6 °F 79% 30.10 in 10.0 mi North 18.4 mph 32.2 mph N/A   Overcast
6:13 AM 42.8 °F 35.4 °F 37.4 °F 81% 30.10 in 10.0 mi NNE 15.0 mph 31.1 mph N/A   Overcast
6:33 AM 42.8 °F 34.5 °F 37.4 °F 81% 30.11 in 10.0 mi North 18.4 mph 29.9 mph N/A   Overcast
6:58 AM 42.1 °F 34.2 °F 35.8 °F 78% 30.12 in 10.0 mi NNE 16.1 mph 28.8 mph N/A   Overcast
7:03 AM 42.8 °F 33.8 °F 35.6 °F 76% 30.12 in 10.0 mi NNE 21.9 mph 29.9 mph N/A   Overcast
7:42 AM 42.8 °F 32.9 °F 35.6 °F 76% 30.14 in 10.0 mi North 26.5 mph 32.2 mph N/A   Light Drizzle
7:52 AM 42.8 °F 34.0 °F 35.6 °F 76% 30.15 in 10.0 mi North 20.7 mph 35.7 mph N/A   Overcast
7:58 AM 41.9 °F 32.3 °F 34.9 °F 76% 30.15 in 10.0 mi North 23.0 mph 31.1 mph 0.00 in   Overcast
8:17 AM 41.0 °F 30.9 °F 35.6 °F 81% 30.17 in 10.0 mi North 24.2 mph 31.1 mph N/A Rain Light Rain
8:52 AM 41.0 °F 31.6 °F 35.6 °F 81% 30.17 in 10.0 mi North 20.7 mph 33.4 mph N/A Rain Rain
8:58 AM 41.0 °F 32.5 °F 35.6 °F 81% 30.18 in 10.0 mi North 17.3 mph 28.8 mph N/A   Overcast
10:39 AM 39.2 °F 30.8 °F 33.8 °F 81% 30.22 in 10.0 mi North 15.0 mph 28.8 mph N/A Rain Light Rain
10:43 AM 39.2 °F 30.5 °F 33.8 °F 81% 30.22 in 10.0 mi North 16.1 mph 23.0 mph N/A   Light Drizzle
10:58 AM 39.6 °F 31.3 °F 34.7 °F 83% 30.22 in 10.0 mi North 15.0 mph - 0.00 in Rain Light Rain
11:08 AM 39.2 °F 29.0 °F 32.0 °F 75% 30.21 in 10.0 mi North 21.9 mph 28.8 mph N/A Rain Light Rain
11:58 AM 38.3 °F 29.3 °F 32.9 °F 81% 30.23 in 10.0 mi North 16.1 mph 25.3 mph 0.00 in   Light Drizzle
12:02 PM 39.2 °F 29.8 °F 32.0 °F 75% 30.21 in 10.0 mi North 18.4 mph 24.2 mph N/A   Overcast
12:11 PM 37.4 °F 27.5 °F 32.0 °F 81% 30.21 in 10.0 mi North 18.4 mph 23.0 mph N/A   Light Drizzle
12:40 PM 37.4 °F 26.6 °F 32.0 °F 81% 30.20 in 10.0 mi North 21.9 mph 27.6 mph N/A Rain Light Rain
12:56 PM 37.4 °F 28.5 °F 32.0 °F 81% 30.19 in 10.0 mi North 15.0 mph 23.0 mph N/A Rain Light Rain
12:58 PM 38.3 °F 29.7 °F 33.3 °F 82% 30.20 in 10.0 mi North 15.0 mph 23.0 mph 0.00 in Rain Light Rain
1:25 PM 39.2 °F 30.2 °F 32.0 °F 75% 30.18 in 10.0 mi North 17.3 mph - N/A Rain Light Rain
1:33 PM 39.2 °F 30.8 °F 32.0 °F 75% 30.16 in 10.0 mi North 15.0 mph - N/A Rain Light Rain
1:58 PM 38.8 °F 30.0 °F 32.9 °F 79% 30.16 in 10.0 mi North 16.1 mph - 0.00 in   Light Drizzle
2:16 PM 39.2 °F 31.6 °F 32.0 °F 75% 30.16 in 10.0 mi North 12.7 mph 25.3 mph N/A   Overcast
2:34 PM 39.2 °F 30.5 °F 32.0 °F 75% 30.17 in 10.0 mi North 16.1 mph - N/A Rain Light Rain
2:58 PM 38.5 °F 29.6 °F 32.2 °F 78% 30.18 in 10.0 mi NNW 16.1 mph - 0.00 in Rain Light Rain
3:58 PM 37.8 °F 29.8 °F 33.1 °F 83% 30.18 in 10.0 mi North 12.7 mph 18.4 mph 0.00 in Rain Light Rain
4:58 PM 37.9 °F 32.1 °F 32.4 °F 80% 30.17 in 10.0 mi North 8.1 mph - 0.00 in Rain Light Rain
5:19 PM 37.4 °F 32.1 °F 32.0 °F 81% 30.16 in 10.0 mi North 6.9 mph - N/A   Light Drizzle
5:30 PM 37.4 °F 31.4 °F 32.0 °F 81% 30.16 in 10.0 mi North 8.1 mph - N/A   Overcast
5:58 PM 37.9 °F 31.5 °F 30.7 °F 75% 30.17 in 10.0 mi NNW 9.2 mph - 0.00 in   Mostly Cloudy
6:58 PM 38.1 °F 33.7 °F 30.6 °F 74% 30.18 in 10.0 mi North 5.8 mph - N/A   Partly Cloudy
7:58 PM 37.2 °F - 30.6 °F 77% 30.19 in 10.0 mi NNE 2.3 mph - N/A   Clear
8:58 PM 36.3 °F - 31.1 °F 81% 30.20 in 10.0 mi Calm Calm - N/A   Scattered Clouds
9:58 PM 36.3 °F - 32.2 °F 85% 30.21 in 10.0 mi Calm Calm - N/A   Clear
10:58 PM 34.3 °F 31.4 °F 31.6 °F 90% 30.20 in 9.0 mi North 3.5 mph - N/A   Clear
11:33 PM 32.0 °F 28.7 °F 32.0 °F 100% 30.19 in 10.0 mi NW 3.5 mph - N/A   Clear
11:48 PM 33.8 °F 29.6 °F 32.0 °F 93% 30.19 in 9.0 mi NNW 4.6 mph - N/A   Clear
11:58 PM 33.3 °F 27.1 °F 30.6 °F 90% 30.20 in 8.0 mi NW 6.9 mph - N/A   Clear